Location: Newark
(44.2003°N, 3.2583°E)
Time: 08:41:36
(UTC+00:00)

SR - Pass Details

Date: 29 October 2019
Orbit: 573 x 882 km, 66.7° (Epoch: 19 November)

Event Time Altitude Azimuth Distance (km) Brightness Sun altitude
Rises 04:43:12 0° 326° (NW) 3,469 - -17.7°
Reaches altitude 10° 04:45:42 10° 324° (NW) 2,541 - -17.3°
Exits shadow 04:45:55 11° 324° (NW) 2,459 ? -17.2°
Maximum altitude 04:51:37 71° 242° (WSW) 932 ? -16.2°
Drops below altitude 10° 04:57:25 10° 160° (SSE) 2,493 ? -15.2°
Sets 04:59:51 0° 158° (SSE) 3,399 ? -14.8°
